Location: Fort Worth, Tx
(32.7431°N, 97.3695°W)
Time: 19:35:06
(UTC-04:00)

Max Valier Satellite - Pass Details

Date: 30 March 2023
Orbit: 444 x 458 km, 97.2° (Epoch: 04 June)

Event Time Altitude Azimuth Distance (km) Brightness Sun altitude
Exits shadow 21:18:54 - 126° (SE) 1,807 ? -7.2°
Reaches altitude 10° 21:19:39 10° 118° (ESE) 1,560 ? -7.4°
Maximum altitude 21:22:02 19° 72° (ENE) 1,140 ? -7.9°
Drops below altitude 10° 21:24:27 10° 26° (NNE) 1,572 ? -8.4°
Enters shadow 22:29:58 -47° 174° (S) 9,877 ? -21.7°
